Location: Brede
(50.9167°N, 0.6000°E)
Time: 20:18:32
(UTC+00:00)

Vanguard 1 Rocket - Pass Details

Date: 01 December 2020
Orbit: 655 x 4221 km, 34.3° (Epoch: 17 January)

Event Time Altitude Azimuth Distance (km) Brightness Sun altitude
Exits shadow 03:17:11 44° 206° (SSW) 4,476 10.4 -40.1°
Maximum altitude 03:20:57 47° 184° (S) 4,132 10.4 -39.5°
Drops below altitude 10° 03:35:43 10° 117° (ESE) 4,966 11.6 -37.3°
Sets 03:38:55 0° 111° (ESE) 5,580 12.1 -36.8°
